Location: Kampong Paya Jaras Dalam
(3.1833°N, 101.5500°E)
Time: 05:40:36
(UTC+00:00)

BREEZE-M DEB (TANK) - Pass Details

Date: 15 May 2026
Orbit: 329 x 13682 km, 49.6° (Epoch: 7 June)

Event Time Altitude Azimuth Distance (km) Brightness Sun altitude
Exits shadow 21:19:13 63° 102° (ESE) 613 2.9 -24.9°
Drops below altitude 10° 21:24:55 10° 43° (NE) 3,130 7.3 -23.6°
Sets 21:29:56 0° 40° (NE) 5,433 8.7 -22.4°
